Time,TemperatureF,DewpointF,PressureIn,WindDirection,WindDirectionDegrees,WindSpeedMPH,WindSpeedGustMPH,Humidity,HourlyPrecipIn,Conditions,Clouds,dailyrainin,SoftwareType,DateUTC
2013-02-10 00:01:00,37.0,24.0,30.21,SW,221,0.0,0.0,58,0.00,,,0.00,,2013-02-10 05:01:00,
2013-02-10 00:11:00,37.0,24.0,30.21,SW,221,0.0,0.0,58,0.00,,,0.00,,2013-02-10 05:11:00,
2013-02-10 00:22:00,36.0,23.0,30.21,SW,221,0.0,0.0,58,0.00,,,0.00,,2013-02-10 05:22:00,
2013-02-10 00:32:00,36.0,23.0,30.21,SW,223,0.0,0.0,59,0.00,,,0.00,,2013-02-10 05:32:00,
2013-02-10 00:42:00,36.0,23.0,30.21,SW,223,0.0,0.0,59,0.00,,,0.00,,2013-02-10 05:42:00,
2013-02-10 00:52:00,36.0,25.0,30.21,SW,222,0.0,0.0,63,0.00,,,0.00,,2013-02-10 05:52:00,
2013-02-10 01:02:00,36.0,25.0,30.21,SW,223,0.0,0.0,63,0.00,,,0.00,,2013-02-10 06:02:00,
2013-02-10 01:11:00,36.0,25.0,30.21,SW,223,0.0,0.0,63,0.00,,,0.00,,2013-02-10 06:11:00,
2013-02-10 01:21:00,36.0,25.0,30.21,SW,222,0.0,0.0,63,0.00,,,0.00,,2013-02-10 06:21:00,
2013-02-10 01:32:00,36.0,26.0,30.21,SW,223,0.0,0.0,68,0.00,,,0.00,,2013-02-10 06:32:00,
2013-02-10 01:42:00,36.0,26.0,30.21,SW,223,0.0,0.0,68,0.00,,,0.00,,2013-02-10 06:42:00,
2013-02-10 01:52:00,37.0,25.0,30.21,SW,223,0.0,3.0,62,0.00,,,0.00,,2013-02-10 06:52:00,
2013-02-10 02:01:00,38.0,25.0,30.21,SW,223,3.0,4.0,59,0.00,,,0.00,,2013-02-10 07:01:00,
2013-02-10 02:11:00,38.0,25.0,30.21,SW,223,3.0,4.0,59,0.00,,,0.00,,2013-02-10 07:11:00,
2013-02-10 02:21:00,38.0,25.0,30.21,SW,222,0.0,0.0,59,0.00,,,0.00,,2013-02-10 07:21:00,
2013-02-10 02:32:00,38.0,25.0,30.21,SW,222,0.0,0.0,58,0.00,,,0.00,,2013-02-10 07:32:00,
2013-02-10 02:42:00,38.0,25.0,30.21,SW,222,0.0,0.0,58,0.00,,,0.00,,2013-02-10 07:42:00,
2013-02-10 02:52:00,38.0,28.0,30.21,SW,223,0.0,0.0,67,0.00,,,0.00,,2013-02-10 07:52:00,
2013-02-10 03:01:00,39.0,26.0,30.21,SW,223,0.0,4.0,60,0.00,,,0.00,,2013-02-10 08:01:00,
2013-02-10 03:11:00,39.0,26.0,30.21,SW,223,0.0,4.0,60,0.00,,,0.00,,2013-02-10 08:11:00,
2013-02-10 03:21:00,37.0,27.0,30.24,SW,221,5.0,5.0,66,0.00,,,0.00,,2013-02-10 08:21:00,
2013-02-10 03:32:00,38.0,26.0,30.21,SW,220,0.0,5.0,62,0.00,,,0.00,,2013-02-10 08:32:00,
2013-02-10 03:43:00,38.0,26.0,30.21,SW,220,0.0,5.0,62,0.00,,,0.00,,2013-02-10 08:43:00,
2013-02-10 03:52:00,38.0,27.0,30.21,SW,220,0.0,0.0,64,0.00,,,0.00,,2013-02-10 08:52:00,
2013-02-10 04:02:00,38.0,27.0,30.21,SW,220,0.0,0.0,64,0.00,,,0.00,,2013-02-10 09:02:00,
2013-02-10 04:11:00,38.0,27.0,30.21,SW,220,0.0,0.0,64,0.00,,,0.00,,2013-02-10 09:11:00,
2013-02-10 04:21:00,38.0,28.0,30.21,SW,220,0.0,5.0,66,0.00,,,0.00,,2013-02-10 09:21:00,
2013-02-10 04:32:00,38.0,27.0,30.21,SW,217,0.0,4.0,64,0.00,,,0.00,,2013-02-10 09:32:00,
2013-02-10 04:42:00,38.0,27.0,30.21,SW,217,0.0,4.0,64,0.00,,,0.00,,2013-02-10 09:42:00,
2013-02-10 04:52:00,39.0,28.0,30.21,SSW,213,0.0,5.0,64,0.00,,,0.00,,2013-02-10 09:52:00,
2013-02-10 05:01:00,38.0,28.0,30.21,SSW,212,0.0,0.0,66,0.00,,,0.00,,2013-02-10 10:01:00,
2013-02-10 05:11:00,38.0,28.0,30.21,SW,214,3.0,4.0,68,0.00,,,0.00,,2013-02-10 10:11:00,
2013-02-10 05:21:00,38.0,28.0,30.21,SW,214,3.0,4.0,68,0.00,,,0.00,,2013-02-10 10:21:00,
2013-02-10 05:31:00,39.0,29.0,30.21,SW,214,0.0,5.0,66,0.00,,,0.00,,2013-02-10 10:31:00,
2013-02-10 05:42:00,39.0,29.0,30.21,SW,214,0.0,5.0,66,0.00,,,0.00,,2013-02-10 10:42:00,
2013-02-10 05:52:00,39.0,29.0,30.21,SSW,213,0.0,0.0,66,0.00,,,0.00,,2013-02-10 10:52:00,
2013-02-10 06:01:00,38.0,29.0,30.21,SW,214,0.0,5.0,69,0.00,,,0.00,,2013-02-10 11:01:00,
2013-02-10 06:11:00,38.0,29.0,30.21,SW,214,0.0,5.0,69,0.00,,,0.00,,2013-02-10 11:11:00,
2013-02-10 06:22:00,38.0,29.0,30.21,SSW,213,0.0,5.0,71,0.00,,,0.00,,2013-02-10 11:22:00,
2013-02-10 06:32:00,39.0,30.0,30.21,SSW,213,0.0,4.0,70,0.00,,,0.00,,2013-02-10 11:32:00,
2013-02-10 06:42:00,39.0,30.0,30.21,SSW,213,0.0,4.0,70,0.00,,,0.00,,2013-02-10 11:42:00,
2013-02-10 06:52:00,39.0,26.0,30.21,SW,227,4.0,7.0,60,0.00,,,0.00,,2013-02-10 11:52:00,
2013-02-10 07:02:00,39.0,27.0,30.24,SW,228,4.0,5.0,63,0.00,,,0.00,,2013-02-10 12:02:00,
2013-02-10 07:12:00,39.0,27.0,30.24,SW,228,4.0,5.0,63,0.00,,,0.00,,2013-02-10 12:12:00,
2013-02-10 07:21:00,40.0,24.0,30.21,SW,228,3.0,6.0,52,0.00,,,0.00,,2013-02-10 12:21:00,
2013-02-10 07:32:00,40.0,23.0,30.21,SW,227,0.0,5.0,51,0.00,,,0.00,,2013-02-10 12:32:00,
2013-02-10 07:42:00,40.0,23.0,30.21,SW,227,0.0,5.0,51,0.00,,,0.00,,2013-02-10 12:42:00,
2013-02-10 07:52:00,40.0,24.0,30.21,SW,228,0.0,5.0,52,0.00,,,0.00,,2013-02-10 12:52:00,
2013-02-10 08:02:00,40.0,25.0,30.21,SW,232,4.0,6.0,54,0.00,,,0.00,,2013-02-10 13:02:00,
2013-02-10 08:11:00,40.0,25.0,30.21,SW,232,4.0,6.0,54,0.00,,,0.00,,2013-02-10 13:11:00,
2013-02-10 08:21:00,41.0,23.0,30.21,SW,232,0.0,5.0,48,0.00,,,0.00,,2013-02-10 13:21:00,
2013-02-10 08:31:00,41.0,24.0,30.21,SW,228,0.0,5.0,50,0.00,,,0.00,,2013-02-10 13:31:00,
2013-02-10 08:41:00,41.0,24.0,30.21,SW,228,0.0,5.0,50,0.00,,,0.00,,2013-02-10 13:41:00,
2013-02-10 08:52:00,42.0,26.0,30.24,SW,228,0.0,0.0,52,0.00,,,0.00,,2013-02-10 13:52:00,
2013-02-10 09:02:00,43.0,27.0,30.24,SW,228,0.0,0.0,52,0.00,,,0.00,,2013-02-10 14:02:00,
2013-02-10 09:11:00,43.0,27.0,30.24,SW,228,0.0,0.0,52,0.00,,,0.00,,2013-02-10 14:11:00,
2013-02-10 09:21:00,43.0,24.0,30.21,SW,229,0.0,4.0,47,0.00,,,0.00,,2013-02-10 14:21:00,
2013-02-10 09:32:00,44.0,26.0,30.21,SW,229,0.0,4.0,48,0.00,,,0.00,,2013-02-10 14:32:00,
2013-02-10 09:41:00,44.0,26.0,30.21,SW,229,0.0,4.0,48,0.00,,,0.00,,2013-02-10 14:41:00,
2013-02-10 09:52:00,47.0,28.0,30.21,SW,228,3.0,4.0,48,0.00,,,0.00,,2013-02-10 14:52:00,
2013-02-10 10:02:00,48.0,28.0,30.21,SW,227,4.0,5.0,45,0.00,,,0.00,,2013-02-10 15:02:00,
2013-02-10 10:11:00,48.0,28.0,30.21,SW,227,4.0,5.0,45,0.00,,,0.00,,2013-02-10 15:11:00,
2013-02-10 10:22:00,51.0,30.0,30.21,SW,228,0.0,4.0,44,0.00,,,0.00,,2013-02-10 15:22:00,
2013-02-10 10:32:00,52.0,31.0,30.21,SW,226,0.0,3.0,44,0.00,,,0.00,,2013-02-10 15:32:00,
2013-02-10 10:52:00,53.0,32.0,30.21,SW,226,0.0,5.0,44,0.00,,,0.00,,2013-02-10 15:52:00,
2013-02-10 11:02:00,53.0,31.0,30.21,SW,225,0.0,0.0,43,0.00,,,0.00,,2013-02-10 16:02:00,
2013-02-10 11:12:00,54.0,30.0,30.21,SW,221,3.0,5.0,39,0.00,,,0.00,,2013-02-10 16:12:00,
2013-02-10 11:22:00,54.0,30.0,30.21,SW,221,3.0,5.0,39,0.00,,,0.00,,2013-02-10 16:22:00,
2013-02-10 11:32:00,55.0,29.0,30.21,SSW,198,4.0,6.0,36,0.00,,,0.00,,2013-02-10 16:32:00,
2013-02-10 11:42:00,58.0,28.0,30.21,SW,216,5.0,10.0,31,0.00,,,0.00,,2013-02-10 16:42:00,
2013-02-10 11:52:00,58.0,28.0,30.21,SW,216,5.0,10.0,31,0.00,,,0.00,,2013-02-10 16:52:00,
2013-02-10 12:02:00,59.0,28.0,30.18,SSW,197,0.0,10.0,30,0.00,,,0.00,,2013-02-10 17:02:00,
2013-02-10 12:22:00,62.0,29.0,30.18,SSW,213,3.0,6.0,29,0.00,,,0.00,,2013-02-10 17:22:00,
2013-02-10 12:32:00,64.0,31.0,30.18,SSW,212,3.0,4.0,29,0.00,,,0.00,,2013-02-10 17:32:00,
2013-02-10 12:42:00,63.0,30.0,30.15,SSW,207,3.0,8.0,29,0.00,,,0.00,,2013-02-10 17:42:00,
2013-02-10 12:52:00,63.0,30.0,30.15,SSW,207,3.0,8.0,29,0.00,,,0.00,,2013-02-10 17:52:00,
2013-02-10 13:02:00,63.0,30.0,30.12,SW,228,3.0,7.0,29,0.00,,,0.00,,2013-02-10 18:02:00,
2013-02-10 13:12:00,64.0,30.0,30.12,WSW,257,5.0,10.0,28,0.00,,,0.00,,2013-02-10 18:12:00,
2013-02-10 13:22:00,64.0,30.0,30.12,WSW,257,5.0,10.0,28,0.00,,,0.00,,2013-02-10 18:22:00,
2013-02-10 13:32:00,65.0,31.0,30.09,SW,215,4.0,10.0,28,0.00,,,0.00,,2013-02-10 18:32:00,
2013-02-10 13:52:00,67.0,27.0,30.09,WSW,249,7.0,9.0,22,0.00,,,0.00,,2013-02-10 18:52:00,
2013-02-10 14:02:00,70.0,28.0,30.09,WNW,290,5.0,9.0,21,0.00,,,0.00,,2013-02-10 19:02:00,
2013-02-10 14:12:00,73.0,30.0,30.09,NNE,29,9.0,10.0,20,0.00,,,0.00,,2013-02-10 19:12:00,
2013-02-10 14:22:00,73.0,30.0,30.09,NNE,29,9.0,10.0,20,0.00,,,0.00,,2013-02-10 19:22:00,
2013-02-10 14:32:00,72.0,30.0,30.09,NW,325,0.0,9.0,21,0.00,,,0.00,,2013-02-10 19:32:00,
2013-02-10 14:42:00,70.0,28.0,30.06,NW,323,4.0,7.0,21,0.00,,,0.00,,2013-02-10 19:42:00,
2013-02-10 14:52:00,70.0,28.0,30.06,NW,323,4.0,7.0,21,0.00,,,0.00,,2013-02-10 19:52:00,
2013-02-10 15:02:00,71.0,29.0,30.06,NNW,329,4.0,9.0,21,0.00,,,0.00,,2013-02-10 20:02:00,
2013-02-10 15:22:00,70.0,28.0,30.06,NNW,331,5.0,7.0,21,0.00,,,0.00,,2013-02-10 20:22:00,
2013-02-10 15:32:00,69.0,27.0,30.06,NE,54,7.0,8.0,21,0.00,,,0.00,,2013-02-10 20:32:00,
2013-02-10 15:42:00,65.0,28.0,30.06,East,80,0.0,4.0,25,0.00,,,0.00,,2013-02-10 20:42:00,
2013-02-10 15:52:00,65.0,28.0,30.06,East,80,0.0,4.0,25,0.00,,,0.00,,2013-02-10 20:52:00,
2013-02-10 16:02:00,64.0,27.0,30.06,East,80,4.0,4.0,25,0.00,,,0.00,,2013-02-10 21:02:00,
2013-02-10 16:11:00,64.0,27.0,30.06,East,80,4.0,4.0,25,0.00,,,0.00,,2013-02-10 21:11:00,
2013-02-10 16:22:00,63.0,29.0,30.06,East,80,0.0,0.0,28,0.00,,,0.00,,2013-02-10 21:22:00,
2013-02-10 16:32:00,60.0,31.0,30.06,East,82,3.0,3.0,33,0.00,,,0.00,,2013-02-10 21:32:00,
2013-02-10 16:42:00,55.0,30.0,30.06,East,79,4.0,5.0,38,0.00,,,0.00,,2013-02-10 21:42:00,
2013-02-10 16:52:00,55.0,30.0,30.06,East,79,4.0,5.0,38,0.00,,,0.00,,2013-02-10 21:52:00,
2013-02-10 17:02:00,54.0,33.0,30.06,East,81,4.0,5.0,45,0.00,,,0.00,,2013-02-10 22:02:00,
2013-02-10 17:11:00,54.0,42.0,30.06,East,81,5.0,6.0,63,0.00,,,0.00,,2013-02-10 22:11:00,
2013-02-10 17:22:00,54.0,42.0,30.06,East,81,5.0,6.0,63,0.00,,,0.00,,2013-02-10 22:22:00,
2013-02-10 17:32:00,52.0,45.0,30.06,East,82,4.0,5.0,77,0.00,,,0.00,,2013-02-10 22:32:00,
2013-02-10 17:42:00,51.0,43.0,30.09,SSW,197,4.0,6.0,74,0.00,,,0.00,,2013-02-10 22:42:00,
2013-02-10 17:52:00,51.0,43.0,30.09,SSW,197,4.0,6.0,74,0.00,,,0.00,,2013-02-10 22:52:00,
2013-02-10 18:02:00,50.0,44.0,30.09,SSW,196,4.0,5.0,79,0.00,,,0.00,,2013-02-10 23:02:00,
2013-02-10 18:11:00,50.0,44.0,30.09,SSW,196,4.0,5.0,79,0.00,,,0.00,,2013-02-10 23:11:00,
2013-02-10 18:22:00,50.0,46.0,30.09,SW,217,4.0,7.0,87,0.00,,,0.00,,2013-02-10 23:22:00,
2013-02-10 18:32:00,50.0,47.0,30.09,SW,217,6.0,6.0,89,0.00,,,0.00,,2013-02-10 23:32:00,
2013-02-10 18:42:00,50.0,46.0,30.06,SW,222,5.0,9.0,86,0.00,,,0.00,,2013-02-10 23:42:00,
2013-02-10 18:52:00,50.0,46.0,30.06,SW,222,5.0,9.0,86,0.00,,,0.00,,2013-02-10 23:52:00,
2013-02-10 19:02:00,49.0,45.0,30.09,SSW,207,0.0,7.0,86,0.00,,,0.00,,2013-02-11 00:02:00,
2013-02-10 19:11:00,49.0,45.0,30.09,SW,225,5.0,7.0,87,0.00,,,0.00,,2013-02-11 00:11:00,
2013-02-10 19:22:00,49.0,45.0,30.09,SW,225,5.0,7.0,87,0.00,,,0.00,,2013-02-11 00:22:00,
2013-02-10 19:32:00,49.0,45.0,30.03,WSW,248,5.0,9.0,87,0.00,,,0.00,,2013-02-11 00:32:00,
2013-02-10 19:42:00,49.0,45.0,30.03,West,266,0.0,7.0,87,0.00,,,0.00,,2013-02-11 00:42:00,
2013-02-10 19:52:00,49.0,45.0,30.03,West,266,0.0,7.0,87,0.00,,,0.00,,2013-02-11 00:52:00,
2013-02-10 20:01:00,49.0,45.0,30.03,SW,229,5.0,9.0,87,0.00,,,0.00,,2013-02-11 01:01:00,
2013-02-10 20:11:00,49.0,45.0,30.03,SW,229,5.0,9.0,87,0.00,,,0.00,,2013-02-11 01:11:00,
2013-02-10 20:21:00,50.0,46.0,30.00,South,171,4.0,10.0,86,0.00,,,0.00,,2013-02-11 01:21:00,
2013-02-10 20:32:00,50.0,46.0,30.06,SE,139,3.0,7.0,86,0.00,,,0.00,,2013-02-11 01:32:00,
2013-02-10 20:42:00,49.0,45.0,30.03,SE,144,0.0,4.0,86,0.00,,,0.00,,2013-02-11 01:42:00,
2013-02-10 20:52:00,49.0,45.0,30.03,SE,144,0.0,4.0,86,0.00,,,0.00,,2013-02-11 01:52:00,
2013-02-10 21:01:00,49.0,45.0,30.03,SSW,211,0.0,6.0,86,0.00,,,0.00,,2013-02-11 02:01:00,
2013-02-10 21:11:00,49.0,45.0,30.03,SSW,211,0.0,6.0,86,0.00,,,0.00,,2013-02-11 02:11:00,
2013-02-10 21:21:00,49.0,45.0,30.00,SSW,211,0.0,7.0,86,0.00,,,0.00,,2013-02-11 02:21:00,
2013-02-10 21:32:00,49.0,45.0,30.03,SSW,212,0.0,0.0,86,0.00,,,0.00,,2013-02-11 02:32:00,
2013-02-10 21:42:00,49.0,45.0,30.00,SW,222,5.0,6.0,86,0.00,,,0.00,,2013-02-11 02:42:00,
2013-02-10 21:52:00,49.0,45.0,30.00,SW,222,5.0,6.0,86,0.00,,,0.00,,2013-02-11 02:52:00,
2013-02-10 22:02:00,48.0,44.0,30.00,SSW,195,0.0,6.0,86,0.00,,,0.00,,2013-02-11 03:02:00,
2013-02-10 22:11:00,48.0,44.0,30.00,SSW,193,0.0,4.0,86,0.00,,,0.00,,2013-02-11 03:11:00,
2013-02-10 22:21:00,48.0,44.0,30.00,SSW,193,0.0,4.0,86,0.00,,,0.00,,2013-02-11 03:21:00,
2013-02-10 22:32:00,48.0,44.0,30.00,SSW,192,0.0,6.0,85,0.00,,,0.00,,2013-02-11 03:32:00,
2013-02-10 22:42:00,48.0,44.0,30.00,SSW,193,0.0,0.0,85,0.00,,,0.00,,2013-02-11 03:42:00,
2013-02-10 22:52:00,48.0,44.0,30.00,SSW,193,0.0,0.0,85,0.00,,,0.00,,2013-02-11 03:52:00,
2013-02-10 23:01:00,48.0,44.0,30.00,SSW,193,0.0,0.0,86,0.00,,,0.00,,2013-02-11 04:01:00,
2013-02-10 23:11:00,48.0,44.0,30.00,SSW,193,0.0,0.0,86,0.00,,,0.00,,2013-02-11 04:11:00,
2013-02-10 23:22:00,48.0,44.0,29.97,SSW,210,0.0,7.0,86,0.00,,,0.00,,2013-02-11 04:22:00,
2013-02-10 23:32:00,48.0,44.0,29.97,SSW,209,0.0,4.0,86,0.00,,,0.00,,2013-02-11 04:32:00,
2013-02-10 23:42:00,48.0,44.0,29.97,SW,229,0.0,4.0,85,0.00,,,0.00,,2013-02-11 04:42:00,
2013-02-10 23:52:00,48.0,44.0,29.97,SW,229,0.0,4.0,85,0.00,,,0.00,,2013-02-11 04:52:00,